Location: Sawmill Trailhead
(33.5800°N, 116.4497°W)
Time: 17:18:51
(UTC-07:00)

Amateur Radio Satellites - All Passes

Search period start: 24 June 2017 16:48
Search period end: 25 June 2017 16:48
Location: Sawmill Trailhead, 33.5800°N, 116.4497°W

Satellite Date Start Highest point End Downlink Frequencies (MHz)
Time Altitude Azimuth
ITAMSAT 1 24 Jun 16:49:27 16:52:20 15° 267° (W) 16:55:14 435.822/435.867
CUBESAT XI-V 24 Jun 16:50:09 16:54:27 39° 99° (E) 16:58:44 437.345
DOVE 4 24 Jun 16:53:56 16:56:59 20° 69° (ENE) 17:00:04 437.250
NUDT-PHONESAT 24 Jun 17:21:19 17:22:52 12° 68° (ENE) 17:24:23 437.300
XW-2F 24 Jun 17:31:51 17:34:50 22° 72° (ENE) 17:37:50 145.980 - 146.000
HO-68 24 Jun 17:34:44 17:37:19 12° 56° (ENE) 17:39:53 435.675
XW-2D 24 Jun 17:34:48 17:38:01 26° 73° (ENE) 17:41:15 145.860 - 145.880
LilacSat-2 24 Jun 17:41:27 17:44:56 33° 74° (ENE) 17:48:25 437.200
CUTE-I 24 Jun 17:42:52 17:47:39 35° 70° (ENE) 17:52:28 437.470
XW-2B 24 Jun 17:43:30 17:46:57 32° 74° (ENE) 17:50:25 145.730 - 145.750
KKS-1 24 Jun 17:53:39 17:58:03 56° 285° (WNW) 18:02:25 437.445
XW-2C 24 Jun 17:58:35 18:02:20 54° 75° (ENE) 18:06:05 145.795 - 145.815
CUTE 1.7 + AOD 2 24 Jun 18:12:52 18:13:33 10° 66° (ENE) 18:14:14 437.475
KAITUO 1B 24 Jun 18:15:22 18:19:07 69° 77° (ENE) 18:22:54 145.475/437.950
STARS 24 Jun 18:26:20 18:30:43 59° 285° (WNW) 18:35:03 437.465
CUBESAT XI-V 24 Jun 18:28:37 18:31:28 16° 292° (WNW) 18:34:18 437.345
SRMSAT 24 Jun 18:29:37 18:33:58 21° 182° (S) 18:38:18 437.500
DOVE 4 24 Jun 18:31:08 18:34:31 24° 264° (W) 18:37:57 437.250
JUGNU 24 Jun 18:38:15 18:39:27 11° 197° (SSW) 18:40:40 437.505
RS-15 24 Jun 18:44:30 18:46:53 11° 95° (E) 18:49:15 29.354- 29.394
NUDT-PHONESAT 24 Jun 18:52:56 18:56:23 34° 262° (W) 18:59:51 437.300
XW-2F 24 Jun 19:06:04 19:08:51 19° 265° (W) 19:11:38 145.980 - 146.000
XW-2D 24 Jun 19:09:44 19:12:10 16° 265° (W) 19:14:36 145.860 - 145.880
HO-68 24 Jun 19:16:41 19:23:51 78° 73° (ENE) 19:31:04 435.675
LilacSat-2 24 Jun 19:17:27 19:19:16 13° 267° (W) 19:21:05 437.200
XW-2B 24 Jun 19:19:23 19:21:11 13° 266° (W) 19:23:00 145.730 - 145.750
CUTE-I 24 Jun 19:23:31 19:27:41 23° 264° (W) 19:31:54 437.470
SEEDS 24 Jun 19:29:10 19:33:16 55° 76° (ENE) 19:37:23 437.485
AO-85 24 Jun 19:30:05 19:31:57 13° 110° (ESE) 19:33:47 145.980
CUTE 1.7 + AOD 2 24 Jun 19:44:41 19:48:51 55° 260° (W) 19:53:02 437.475
AO-73 24 Jun 19:45:16 19:48:27 19° 69° (ENE) 19:51:39 145.935
CUBEBUG 2 24 Jun 19:45:22 19:49:51 69° 76° (ENE) 19:54:30 437.445
XW-2A 24 Jun 19:58:06 20:01:21 40° 261° (W) 20:04:37 145.665 - 145.685
BEESAT 3 24 Jun 20:04:16 20:06:45 16° 109° (ESE) 20:09:16 437.485
Oscar 11 24 Jun 20:13:03 20:16:47 29° 72° (ENE) 20:20:31 .
STRAND 1 24 Jun 20:14:44 20:19:55 88° 99° (E) 20:25:04 437.568
ZACube-1 24 Jun 20:18:18 20:22:41 51° 75° (ENE) 20:27:08 437.345
SRMSAT 24 Jun 20:19:06 20:22:27 15° 192° (SSW) 20:25:49 437.500
UWE-3 24 Jun 20:21:03 20:25:35 80° 259° (W) 20:30:15 435.000/436.395/437.385
AAUSAT CUBESAT 2 24 Jun 20:23:01 20:27:08 71° 260° (W) 20:31:15 437.432
O/OREOS (USA 219) 24 Jun 20:33:13 20:35:21 13° 99° (E) 20:37:29 437.305
RS-15 24 Jun 20:45:05 20:56:55 67° 112° (ESE) 21:09:06 29.354- 29.394
BEESAT 2 24 Jun 21:00:18 21:03:29 24° 111° (ESE) 21:06:43 435.950
PCSat 24 Jun 21:07:16 21:11:57 29° 56° (ENE) 21:16:35 145.827
AO-85 24 Jun 21:08:05 21:11:59 40° 302° (WNW) 21:15:45 145.980
HO-68 24 Jun 21:08:12 21:12:08 15° 268° (W) 21:16:05 435.675
YUBILEINY 24 Jun 21:09:31 21:16:48 30° 85° (E) 21:24:06 435.215
FO-29 24 Jun 21:14:42 21:20:21 21° 92° (E) 21:25:52 435.910
AO-73 24 Jun 21:20:19 21:24:22 33° 263° (W) 21:28:31 145.935
EO-88 24 Jun 21:35:36 21:39:03 40° 75° (ENE) 21:42:31 145.990 - 145.960
BEESAT 3 24 Jun 21:40:28 21:44:01 32° 304° (WNW) 21:47:39 437.485
NO-84 24 Jun 21:49:38 21:53:25 74° 312° (NW) 21:57:33 435.350 FM
Oscar 11 24 Jun 21:49:44 21:52:52 19° 265° (W) 21:56:01 .
ZACube-1 24 Jun 21:57:29 21:59:12 12° 268° (W) 22:00:55 437.345
DELFI C3 24 Jun 21:57:48 22:01:40 59° 260° (W) 22:05:32 145.870
M-CUBED/EXP-1 PRIME 24 Jun 21:58:57 22:02:31 38° 104° (ESE) 22:06:20 437.505
TIGRISAT 24 Jun 22:04:14 22:08:06 26° 96° (E) 22:11:53 435.000
O/OREOS (USA 219) 24 Jun 22:09:56 22:14:18 44° 293° (WNW) 22:18:39 437.305
PRISM 24 Jun 22:11:36 22:15:18 32° 98° (E) 22:18:59 437.425
ESTCUBE 1 24 Jun 22:25:34 22:27:57 14° 67° (ENE) 22:30:19 437.505/2401.250
SO-50 24 Jun 22:28:53 22:30:43 12° 47° (NE) 22:32:34 436.795
BEESAT 2 24 Jun 22:37:56 22:41:07 23° 306° (NW) 22:44:21 435.950
UNISAT 6 24 Jun 22:45:29 22:50:09 87° 102° (ESE) 22:54:41 437.425
PCSat 24 Jun 22:50:29 22:55:17 32° 252° (WSW) 23:00:02 145.827
FO-29 24 Jun 22:57:57 23:05:46 70° 287° (WNW) 23:13:24 435.910
RS-15 24 Jun 22:59:20 23:10:13 37° 314° (NW) 23:21:21 29.354- 29.394
YUBILEINY 24 Jun 23:04:43 23:13:07 49° 281° (WNW) 23:21:38 435.215
AIST 2D 24 Jun 23:07:44 23:09:21 13° 94° (E) 23:10:59 435.315
NO-84 24 Jun 23:30:08 23:31:42 12° 331° (NNW) 23:33:18 435.350 FM
LO-87 24 Jun 23:34:26 23:37:46 39° 261° (W) 23:41:07 145.935 - 145.965
M-CUBED/EXP-1 PRIME 24 Jun 23:34:53 23:36:42 13° 295° (WNW) 23:38:33 437.505
TIGRISAT 24 Jun 23:40:53 23:44:37 24° 290° (WNW) 23:48:18 435.000
POLYITAN 1 24 Jun 23:44:08 23:47:12 19° 95° (E) 23:50:15 437.675
PRISM 24 Jun 23:47:45 23:50:16 16° 292° (WNW) 23:52:47 437.425
QB50P2 24 Jun 23:54:23 23:58:05 28° 97° (E) 00:01:44 145.880/145.840
ESTCUBE 1 25 Jun 00:00:01 00:04:19 44° 261° (W) 00:08:38 437.505/2401.250
VELOX 1 25 Jun 00:04:55 00:09:02 42° 73° (ENE) 00:13:10 145.980
SO-50 25 Jun 00:07:06 00:11:37 70° 243° (WSW) 00:16:09 436.795
EO-79 25 Jun 00:18:47 00:22:57 51° 100° (E) 00:27:05 145.935-145.965
DX 1 25 Jun 00:27:38 00:31:03 23° 70° (ENE) 00:34:29 434.975-435.025
SPROUT 25 Jun 00:31:18 00:35:34 83° 259° (W) 00:39:51 437.525
DUCHIFAT 1 25 Jun 00:33:38 00:37:51 62° 100° (E) 00:42:01 145.980
AIST 2D 25 Jun 00:39:38 00:42:34 26° 287° (WNW) 00:45:29 435.315
NANOSAT C BR1 25 Jun 00:41:43 00:45:59 90° 284° (WNW) 00:50:14 145.865
UKube-1 25 Jun 00:46:07 00:49:38 25° 70° (ENE) 00:53:09 .
FO-29 25 Jun 00:46:37 00:49:22 12° 303° (WNW) 00:52:07 435.910
50 SAT 25 Jun 01:00:36 01:03:58 82° 257° (WSW) 01:07:21 437.505
Oscar 19 25 Jun 01:10:41 01:13:53 17° 94° (E) 01:17:04 437.125/150
POLYITAN 1 25 Jun 01:19:17 01:22:57 28° 288° (WNW) 01:26:35 437.675
RS-15 25 Jun 01:23:00 01:28:10 13° 346° (NNW) 01:33:20 29.354- 29.394
QB50P2 25 Jun 01:30:34 01:33:38 19° 291° (WNW) 01:36:41 145.880/145.840
VELOX 1 25 Jun 01:43:31 01:45:38 13° 267° (W) 01:47:44 145.980
BUGSAT 1 25 Jun 01:46:29 01:50:41 61° 284° (WNW) 01:54:50 437.445
ITUPSAT 1 25 Jun 01:48:57 01:50:28 11° 64° (ENE) 01:51:59 437.325
EO-79 25 Jun 01:56:57 01:58:12 11° 294° (WNW) 01:59:27 145.935-145.965
Gurwin Techsat 1B 25 Jun 01:57:32 02:02:14 31° 97° (E) 02:06:54 435.225
BEESAT 25 Jun 01:58:06 02:00:48 15° 66° (ENE) 02:03:29 436.000
DX 1 25 Jun 02:03:37 02:07:06 24° 263° (W) 02:10:36 434.975-435.025
UKube-1 25 Jun 02:22:14 02:25:34 22° 264° (W) 02:28:54 .
Oscar 19 25 Jun 02:48:29 02:53:21 46° 288° (WNW) 02:58:14 437.125/150
MOZHAYETS 4 25 Jun 03:09:30 03:14:01 54° 74° (ENE) 03:18:33
ITUPSAT 1 25 Jun 03:22:55 03:27:40 65° 258° (WSW) 03:32:28 437.325
ITAMSAT 1 25 Jun 03:25:02 03:29:20 26° 96° (E) 03:33:38 435.822/435.867
BEESAT 25 Jun 03:33:30 03:38:07 48° 260° (W) 03:42:45 436.000
Gurwin Techsat 1B 25 Jun 03:37:36 03:42:00 27° 291° (WNW) 03:46:23 435.225
RS-15 25 Jun 03:41:15 03:48:31 17° 25° (NNE) 03:55:36 29.354- 29.394
CUBESAT XI-V 25 Jun 03:49:45 03:53:31 25° 70° (ENE) 03:57:16 437.345
AO-7 25 Jun 04:16:35 04:24:58 72° 105° (ESE) 04:33:18 .
NO-84 25 Jun 04:27:29 04:30:24 17° 34° (NE) 04:33:16 435.350 FM
KKS-1 25 Jun 04:47:13 04:51:38 79° 76° (ENE) 04:56:04 437.445
MOZHAYETS 4 25 Jun 04:49:51 04:51:25 12° 268° (W) 04:52:59
ITAMSAT 1 25 Jun 05:04:09 05:08:44 31° 290° (WNW) 05:13:18 435.822/435.867
STARS 25 Jun 05:18:27 05:22:48 71° 75° (ENE) 05:27:10 437.465
CUBESAT XI-V 25 Jun 05:26:53 05:30:45 26° 264° (W) 05:34:36 437.345
AO-85 25 Jun 05:42:05 05:46:07 46° 59° (ENE) 05:50:24 145.980
RS-15 25 Jun 05:52:56 06:04:46 54° 54° (NE) 06:15:54 29.354- 29.394
BEESAT 3 25 Jun 06:00:32 06:04:17 37° 58° (ENE) 06:07:56 437.485
NO-84 25 Jun 06:04:05 06:08:24 70° 232° (SW) 06:12:31 435.350 FM
CUTE-I 25 Jun 06:04:32 06:08:23 20° 95° (E) 06:12:13 437.470
AO-7 25 Jun 06:10:48 06:16:54 23° 302° (WNW) 06:23:00 .
NUDT-PHONESAT 25 Jun 06:27:18 06:30:25 26° 97° (E) 06:33:31 437.300
DOVE 4 25 Jun 06:31:46 06:36:44 78° 283° (WNW) 06:41:56 437.250
XW-2F 25 Jun 06:40:57 06:44:37 54° 100° (E) 06:48:15 145.980 - 146.000
XW-2D 25 Jun 06:44:33 06:48:18 68° 101° (ESE) 06:52:00 145.860 - 145.880
O/OREOS (USA 219) 25 Jun 06:46:11 06:48:34 14° 60° (ENE) 06:50:55 437.305
HO-68 25 Jun 06:50:48 06:55:19 18° 93° (E) 06:59:49 435.675
LilacSat-2 25 Jun 06:52:15 06:56:02 89° 283° (WNW) 06:59:47 437.200
XW-2B 25 Jun 06:53:31 06:57:18 88° 101° (E) 07:01:02 145.730 - 145.750
BEESAT 2 25 Jun 06:58:14 07:02:14 57° 60° (ENE) 07:06:10 435.950
Tancredo 1 25 Jun 06:59:46 07:02:10 22° 129° (SE) 07:04:34 437.200
XW-2C 25 Jun 07:09:04 07:12:44 54° 284° (WNW) 07:16:23 145.795 - 145.815
ISS 25 Jun 07:14:28 07:16:22 15° 127° (SE) 07:18:18 437.550
SEEDS 25 Jun 07:18:49 07:20:30 12° 93° (E) 07:22:10 437.485
AO-85 25 Jun 07:24:06 07:26:11 13° 250° (WSW) 07:28:18 145.980
KAITUO 1B 25 Jun 07:24:24 07:27:56 43° 285° (WNW) 07:31:26 145.475/437.950
XW-2A 25 Jun 07:24:49 07:26:44 14° 94° (E) 07:28:37 145.665 - 145.685
STRAND 1 25 Jun 07:26:23 07:31:30 83° 75° (ENE) 07:36:40 437.568
YUBILEINY 25 Jun 07:28:46 07:29:52 10° 63° (ENE) 07:30:58 435.215
CUTE 1.7 + AOD 2 25 Jun 07:33:38 07:37:24 32° 97° (E) 07:41:09 437.475
BEESAT 3 25 Jun 07:39:24 07:41:28 14° 252° (WSW) 07:43:30 437.485
CUBEBUG 2 25 Jun 07:41:08 07:44:38 21° 94° (E) 07:48:02 437.445
CUTE-I 25 Jun 07:43:29 07:48:32 42° 288° (WNW) 07:53:34 437.470
NUDT-PHONESAT 25 Jun 08:01:54 08:04:04 15° 290° (WNW) 08:06:12 437.300
RS-15 25 Jun 08:06:06 08:16:44 40° 254° (WSW) 08:26:53 29.354- 29.394
AAUSAT CUBESAT 2 25 Jun 08:09:33 08:12:49 23° 96° (E) 08:16:05 437.432
ZACube-1 25 Jun 08:12:32 08:14:39 13° 92° (E) 08:16:46 437.345
UWE-3 25 Jun 08:15:16 08:19:12 28° 96° (E) 08:23:02 435.000/436.395/437.385
O/OREOS (USA 219) 25 Jun 08:23:55 08:28:10 45° 255° (WSW) 08:32:25 437.305
Tancredo 1 25 Jun 08:35:10 08:37:40 23° 324° (NW) 08:40:10 437.200
HO-68 25 Jun 08:36:23 08:43:31 70° 288° (WNW) 08:50:36 435.675
M-CUBED/EXP-1 PRIME 25 Jun 08:42:28 08:44:58 20° 67° (ENE) 08:47:26 437.505
ISS 25 Jun 08:49:31 08:52:35 37° 321° (NW) 08:55:40 437.550
SEEDS 25 Jun 08:52:25 08:56:19 40° 286° (WNW) 09:00:12 437.485
XW-2A 25 Jun 08:56:44 08:59:24 22° 288° (WNW) 09:02:03 145.665 - 145.685
PRISM 25 Jun 08:58:22 09:00:27 14° 67° (ENE) 09:02:31 437.425
TIGRISAT 25 Jun 08:59:52 09:02:26 15° 67° (ENE) 09:05:03 435.000
FO-29 25 Jun 09:06:11 09:11:28 34° 67° (ENE) 09:17:22 435.910
CUTE 1.7 + AOD 2 25 Jun 09:10:19 09:12:56 16° 291° (WNW) 09:15:35 437.475
AO-73 25 Jun 09:11:54 09:16:18 64° 101° (E) 09:20:32 145.935
CUBEBUG 2 25 Jun 09:17:06 09:21:13 31° 289° (WNW) 09:25:13 437.445
YUBILEINY 25 Jun 09:19:28 09:28:18 70° 82° (E) 09:37:01 435.215
DELFI C3 25 Jun 09:39:11 09:42:14 21° 96° (E) 09:45:17 145.870
Oscar 11 25 Jun 09:39:25 09:43:43 78° 284° (WNW) 09:48:00 .
UNISAT 6 25 Jun 09:39:49 09:44:09 46° 74° (ENE) 09:48:37 437.425
AAUSAT CUBESAT 2 25 Jun 09:44:58 09:48:08 22° 289° (WNW) 09:51:17 437.432
ZACube-1 25 Jun 09:46:55 09:51:07 42° 286° (WNW) 09:55:11 437.345
UWE-3 25 Jun 09:51:59 09:55:25 22° 291° (WNW) 09:58:48 435.000/436.395/437.385
M-CUBED/EXP-1 PRIME 25 Jun 10:17:22 10:19:22 15° 259° (W) 10:21:20 437.505
HO-68 25 Jun 10:28:45 10:29:56 10° 305° (NW) 10:31:07 435.675
PRISM 25 Jun 10:31:38 10:35:22 36° 261° (W) 10:39:07 437.425
TIGRISAT 25 Jun 10:34:19 10:38:40 45° 261° (W) 10:43:07 435.000
EO-88 25 Jun 10:41:28 10:45:07 82° 283° (WNW) 10:48:45 145.990 - 145.960
QB50P2 25 Jun 10:44:27 10:46:30 13° 67° (ENE) 10:48:33 145.880/145.840
FO-29 25 Jun 10:51:22 10:56:28 31° 266° (W) 11:02:10 435.910
LO-87 25 Jun 11:05:39 11:08:21 19° 96° (E) 11:11:01 145.935 - 145.965
EO-79 25 Jun 11:07:35 11:10:55 23° 70° (ENE) 11:14:16 145.935-145.965
AIST 2D 25 Jun 11:09:08 11:12:34 50° 76° (ENE) 11:16:01 435.315
DELFI C3 25 Jun 11:13:53 11:16:52 21° 289° (WNW) 11:19:51 145.870
YUBILEINY 25 Jun 11:18:13 11:24:08 20° 279° (W) 11:30:02 435.215
UNISAT 6 25 Jun 11:18:45 11:21:04 14° 268° (W) 11:23:23 437.425
DUCHIFAT 1 25 Jun 11:21:36 11:25:08 26° 71° (ENE) 11:28:40 145.980
NANOSAT C BR1 25 Jun 11:29:36 11:33:29 37° 73° (ENE) 11:37:25 145.865
PCSat 25 Jun 11:44:11 11:49:28 58° 112° (ESE) 11:54:48 145.827
ESTCUBE 1 25 Jun 11:56:10 12:00:32 50° 100° (E) 12:04:52 437.505/2401.250
VELOX 1 25 Jun 12:01:18 12:02:25 11° 93° (E) 12:03:33 145.980
POLYITAN 1 25 Jun 12:06:46 12:11:00 65° 260° (W) 12:15:15 437.675
QB50P2 25 Jun 12:17:50 12:21:51 42° 261° (W) 12:25:55 145.880/145.840
SPROUT 25 Jun 12:21:34 12:24:56 22° 96° (E) 12:28:17 437.525
Oscar 19 25 Jun 12:23:57 12:27:14 17° 66° (ENE) 12:30:31 437.125/150
BUGSAT 1 25 Jun 12:31:44 12:35:42 50° 74° (ENE) 12:39:45 437.445
LO-87 25 Jun 12:38:59 12:41:38 19° 289° (WNW) 12:44:16 145.935 - 145.965
EO-79 25 Jun 12:43:07 12:46:32 23° 264° (W) 12:49:58 145.935-145.965
JUGNU 25 Jun 12:55:37 12:59:14 17° 169° (S) 13:02:52 437.505
DUCHIFAT 1 25 Jun 12:57:37 13:00:43 20° 265° (W) 13:03:52 145.980
NANOSAT C BR1 25 Jun 13:07:04 13:09:18 14° 266° (W) 13:11:33 145.865
Gurwin Techsat 1B 25 Jun 13:14:40 13:19:24 34° 70° (ENE) 13:24:09 435.225
AO-7 25 Jun 13:24:45 13:27:46 12° 51° (NE) 13:30:46 .
PCSat 25 Jun 13:29:38 13:33:13 18° 308° (NW) 13:36:50 145.827
VELOX 1 25 Jun 13:34:47 13:39:06 52° 286° (WNW) 13:43:24 145.980
ESTCUBE 1 25 Jun 13:34:58 13:36:51 13° 294° (WNW) 13:38:44 437.505/2401.250
DX 1 25 Jun 13:54:33 13:58:56 78° 103° (ESE) 14:03:18 434.975-435.025
SPROUT 25 Jun 13:57:13 14:00:43 25° 289° (WNW) 14:04:13 437.525
50 SAT 25 Jun 13:59:29 14:02:43 42° 285° (WNW) 14:05:58 437.505
Oscar 19 25 Jun 14:01:09 14:06:07 48° 260° (W) 14:11:05 437.125/150
UKube-1 25 Jun 14:11:52 14:16:12 81° 101° (E) 14:20:31 .
SO-50 25 Jun 14:17:08 14:21:42 83° 299° (WNW) 14:26:15 436.795
ITAMSAT 1 25 Jun 14:39:10 14:43:28 27° 69° (ENE) 14:47:47 435.822/435.867
SRMSAT 25 Jun 14:41:54 14:43:58 12° 164° (SSE) 14:46:02 437.500
JUGNU 25 Jun 14:43:11 14:47:36 21° 179° (S) 14:52:02 437.505
Gurwin Techsat 1B 25 Jun 14:55:05 14:59:19 24° 264° (W) 15:03:35 435.225
Tancredo 1 25 Jun 15:01:54 15:04:50 44° 40° (NE) 15:07:44 437.200
MOZHAYETS 4 25 Jun 15:09:39 15:12:38 17° 94° (E) 15:15:36
AO-7 25 Jun 15:10:46 15:18:59 69° 70° (ENE) 15:27:15 .
ISS 25 Jun 15:20:25 15:23:26 33° 38° (NE) 15:26:27 437.550
ITUPSAT 1 25 Jun 15:27:29 15:32:03 43° 99° (E) 15:36:34 437.325
BEESAT 25 Jun 15:37:22 15:42:05 58° 101° (E) 15:46:45 436.000
ITAMSAT 1 25 Jun 16:18:15 16:22:46 30° 263° (W) 16:27:19 435.822/435.867
SRMSAT 25 Jun 16:28:17 16:32:27 19° 173° (S) 16:36:36 437.500
JUGNU 25 Jun 16:32:03 16:35:59 18° 189° (S) 16:39:56 437.505
Tancredo 1 25 Jun 16:39:25 16:40:04 10° 234° (SW) 16:40:43 437.200
